www.pogodaiklimat.ru

Погода и климат >> Архив погоды >> Сенегал >> Kolda


ПОГОДА в Kolda

  • Прогноз погоды в Kolda
  • Монитор погоды в Kolda
  • Климат города

АРХИВ ПОГОДЫ в Kolda

Время (UTC), дата Ветер
(напр.,м/с)
 
Видим.   Явления Облачность Т
(С)
Тd
(С)
f
(%)
Тe
(С)
Тes
(С)
Комфортность P
(гПа)
Po
(гПа)
Тmin
(С)
Tmax
(С)
R
(мм)
R24
(мм)
S
(см)
12 17.04 ЮВ 2 10 км ясно +35.6 +11.1 23 +35 +57 опасность
солнечного
удара
1012.7 1011.6
15 17.04 СВ 3 10 км ясно +40.7 +9.0 15 +39 +53 опасность
солнечного
удара
1009.4 1008.3
18 17.04 СВ 1 10 км ясно +41.2 +10.6 16 +40 +42 очень
жарко
1008.6 1007.5 +42.5
21 17.04 СВ 2 8000 м ясно +34.5 +10.2 23 +34 +34 очень
жарко
1009.6 1008.5
00 18.04 С 2 8000 м ясно +32.6 +9.9 25 +32 +32 жарко 1011.4 1010.3
03 18.04 С 2 8000 м ясно +29.0 +13.1 38 +31 +31 жарко 1010.8 1009.7
06 18.04 штиль 0 8000 м ясно +25.0 +14.5 52 +28 +28 жарко 1012.2 1011.1 +24.8
09 18.04 штиль 0 10 км ясно +28.9 +14.1 40 +31 +39 жарко 1013.3 1012.2
12 18.04 С 3 10 км ясно +37.2 +11.8 22 +37 +54 опасность
солнечного
удара
1012.9 1011.8
15 18.04 С 2 10 км ясно +41.4 +11.3 17 +40 +57 опасность
солнечного
удара
1010.3 1009.2
18 18.04 СВ 3 10 км ясно +41.0 +11.7 18 +40 +42 очень
жарко
1009.2 1008.6 +42.5
21 18.04 штиль 0 8000 м ясно +35.0 +11.7 24 +35 +35 очень
жарко
1009.9 1008.8
00 19.04 ЮЗ 2 8000 м ясно +31.0 +12.6 32 +32 +32 жарко 1011.9 1010.8
03 19.04 ЮЗ 1 8000 м ясно +26.0 +22.3 80 +34 +34 очень
душно
1011.3 1010.2
06 19.04 ЮЗ 1 8000 м ясно +23.3 +20.6 85 +31 +31 очень
душно
1012.4 1011.3 +23.0
09 19.04 Ю 2 10 км ясно +25.6 +18.2 64 +30 +36 душно 1013.6 1012.7
12 19.04 ЮЗ 1 10 км ясно +33.4 +15.7 35 +36 +60 опасность
солнечного
удара
1013.7 1012.6
15 19.04 СВ 2 10 км ясно +36.8 +11.3 22 +36 +54 опасность
солнечного
удара
1011.5 1010.4
18 19.04 С 2 10 км ясно +38.8 +12.2 20 +38 +40 очень
жарко
1010.5 1009.4 +40.0
21 19.04 С 3 8000 м ясно +32.0 +13.7 33 +33 +33 жарко 1011.2 1010.1
00 20.04 С 3 8000 м ясно +28.7 +17.6 51 +33 +33 очень
душно
1012.9 1011.8
06 20.04 СВ 2 8000 м 6/0
[Ci sp]
+21.8 +15.9 69 +25 +25 комфорт 1011.6 1010.5 +21.5
09 20.04 СВ 4 10 км 4/0
[Ci sp]
+23.5 +16.8 66 +27 +31 душно 1013.0 1011.9
12 20.04 СВ 2 10 км 8/0
[Ci sp]
+31.0 +14.4 36 +33 +52 опасность
солнечного
удара
1012.7 1011.6
15 20.04 СВ 2 10 км 6/0
[Ci sp]
+37.5 +13.3 24 +38 +53 опасность
солнечного
удара
1009.9 1008.8
18 20.04 СВ 2 10 км 4/0
[Ci sp]
+37.5 +13.3 24 +38 +40 очень
жарко
1008.4 1007.3 +39.9
21 20.04 штиль 0 8000 м ясно +31.5 +12.7 32 +32 +32 жарко 1009.3 1008.2
00 21.04 С 2 6000 м ясно +28.5 +12.4 37 +30 +30 жарко 1010.2 1009.1
03 21.04 С 1 8000 м ясно +25.7 +20.3 72 +32 +32 очень
душно
1010.0 1008.9
06 21.04 штиль 0 8000 м ясно +23.2 +16.4 66 +28 +28 душно 1010.0 1008.9 +22.9
09 21.04 С 1 10 км 5/0
[Ci sp]
+24.5 +15.5 57 +27 +34 жарко 1011.4 1010.3
12 21.04 ЮЗ 3 10 км ясно +33.5 +16.3 36 +36 +53 опасность
солнечного
удара
1010.3 1009.2
15 21.04 СВ 2 10 км ясно +39.2 +15.1 24 +40 +58 опасность
солнечного
удара
1007.7 1006.6
18 21.04 С 3 10 км ясно +39.7 +16.6 26 +42 +43 опасность
перегрева
1007.1 1006.0 +41.5
21 21.04 СВ 2 8000 м ясно +33.5 +14.5 32 +35 +35 душно 1008.6 1007.5
00 22.04 штиль 0 8000 м ясно +28.8 +16.0 46 +32 +32 душно 1010.1 1009.0
03 22.04 штиль 0 8000 м ясно +25.8 +16.5 56 +29 +29 душно 1009.9 1008.8
06 22.04 штиль 0 8000 м ясно +22.6 +17.1 71 +27 +27 душно 1010.4 1009.3 +22.5
09 22.04 СВ 3 10 км ясно +26.6 +15.6 51 +30 +35 душно 1012.2 1011.1
12 22.04 В 2 10 км 4/0
[Ci sp]
+34.0 +11.2 25 +34 +54 опасность
солнечного
удара
1011.7 1010.6
15 22.04 СВ 4 10 км ясно +39.5 +11.7 19 +39 +50 очень
жарко
1008.9 1007.8
18 22.04 С 2 10 км ясно +39.3 +11.8 19 +38 +41 очень
жарко
1008.1 1007.0 +41.0
21 22.04 ЮЗ 2 8000 м 4/0
[Ci sp]
+33.5 +11.7 27 +34 +34 очень
жарко
1008.6 1007.5
00 23.04 ЮЗ 2 8000 м 5/0
[Ci sp]
+30.0 +18.6 50 +35 +35 очень
душно
1010.7 1009.6
03 23.04 ЮЗ 3 8000 м 5/0
[Ci sp]
+27.0 +15.7 50 +30 +30 душно 1009.9 1008.6
06 23.04 ЮЗ 2 8000 м 5/0
[Ci sp]
+24.5 +14.5 54 +27 +27 жарко 1010.5 1009.4 +24.0
09 23.04 ЮЗ 1 10 км 3/0
[Ci sp]
+27.0 +13.6 44 +29 +36 жарко 1012.6 1011.5
12 23.04 Ю 3 10 км 4/0
[Ci sp]
+33.5 +14.4 32 +35 +51 опасность
солнечного
удара
1012.6 1011.5
15 23.04 СВ 3 10 км 8/0
[Ci sp]
+40.5 +14.7 22 +41 +53 опасность
перегрева
1009.1 1008.0
18 23.04 СВ 3 10 км 8/0
[Ci sp]
+39.2 +13.7 22 +39 +41 очень
жарко
1008.2 1007.1 +41.0
21 23.04 СВ 1 8000 м 8/0
[Ci sp]
+34.0 +14.8 32 +36 +36 душно 1009.5 1008.4
00 24.04 С 3 8000 м 8/0
[Ci sp]
+31.2 +16.4 41 +34 +34 душно 1010.9 1009.8
03 24.04 С 2 8000 м 8/0
[Ci sp]
+29.0 +14.6 41 +31 +31 жарко 1011.1 1009.0
06 24.04 СВ 2 8000 м 8/0
[Ci sp]
+27.2 +15.5 49 +30 +30 душно 1011.2 1010.1 +27.0
09 24.04 СВ 1 10 км ясно +30.0 +15.6 42 +33 +41 душно 1013.7 1012.6

 

Местоположение метеостанции Kolda (Сенегал): широта 12.88 долгота -14.96 высота над уровнем моря 10 м.

В архиве по умолчанию представлена погода в Kolda за последнюю неделю. Архивные данные за месяц целиком и за предыдущие месяцы, начиная с января 2011 года, Вы можете получить, выбрав интересующий диапазон дат из раскрывающегося списка и нажав кнопку "Ввод!".


*Определитесь, кто Вы:
робот инопланетянин человек

Внимание! Время в таблицах - всемирное. Для получения местного времени необходимо прибавить поправку, которая в Kolda равна 0 ч.

Смотрите также архив погоды в соседних городах и на ближайших метеорологических станциях:

Погода в Georgetown (Гамбия) (75 км)
Погода в Bafata (Гвинея-Биссау) (85 км)
Погода в Basse (Гамбия) (89 км)
Погода в Jenoi (Гамбия) (94 км)
Погода в Kauur (Гамбия) (100 км)
Погода в Sapu (Гамбия) (130 км)
Погода в Bissau (Гвинея-Биссау) (132 км)
Погода в Sibanor (Гамбия) (140 км)
Погода в Kerewan (Гамбия) (140 км)
Погода в Ziguinchor (Сенегал) (146 км)

Пояснения к столбцам:

Ветер - указаны скорость ветра в м/с - средняя за 10 мин, порывы в срок и между сроками (в фигурных скобках) и направление, откуда дует ветер: С - северный, СВ - северо-восточный, В - восточный, ЮВ - юго-восточный, Ю - южный, ЮЗ - юго-западный, З - западный, СЗ - северо-западный.
Видимость - горизонтальная дальность видимости в метрах или километрах. При видимости от 1 до 10 км при отсутствии осадков обычно наблюдается дымка, при ухудшении видимости до 1 км и менее - туман. В сухую погоду видимость может ухудшаться дымом, пылью или мглою.
Явления - указаны атмосферные явления, наблюдавшиеся в срок или в последний час перед сроком; фигурными скобками обозначены явления, наблюдавшиеся между сроками (за 1-3 часа до срока); квадратными скобками обозначены град или гололедные отложения с указанием их диаметра в мм.
Облачность - указаны через наклонную черту общая и нижняя облачность в баллах и высота нижней границы облаков в метрах; квадратными скобками обозначены формы облаков: Ci - перистые, Cs - перисто-слоистые, Cc - перисто-кучевые, Ac - высококучевые, As - высокослоистые, Sc - слоисто-кучевые, Ns - слоисто-дождевые, Cu - кучевые, Cb - кучево-дождевые. Подробнее классификацию облаков см. в Атласе облаков (PDF).
T - Температура воздуха - температура, измеренная на высоте 2 м над землей.
Td - Температура точки росы - температура, при понижении до которой содержащийся в воздухе водяной пар достигнет насыщения.
f - Относительная влажность воздуха - влажноcть воздуха, измеренная на высоте 2 м над землей.
Te - Эффективная температура - температура, которую ощущает одетый по сезону человек в тени. Характеристика душности погоды. При расчете учитывается влияние влажности воздуха и скорости ветра на теплоощущения человека.
Tes - Эффективная температура на солнце - температура, которую ощущает человек, с поправкой на солнечный нагрев. Характеристика знойности погоды. Зависит от высоты солнца над горизонтом, облачности и скорости ветра. Ночью, в пасмурную погоду, а также при ветре 12 м/с и более поправка равна нулю.
P - Атмосферное давление - приведенное к уровню моря атмосферное давление.
Po - Атмосферное давление - измеренное на уровне метеостанции атмосферное давление.
Tmin - Минимальная температура - минимум температуры воздуха на высоте 2 м над землей.
Tmax - Максимальная температура - максимум температуры воздуха на высоте 2 м над землей.
R - Количество осадков - Количество выпавших осадков за период времени, мм. При наведении курсора мыши на число - период времени, за который выпало указанное количество осадков.
R24 - Количество осадков - Количество выпавших осадков за 24 часа, мм.
S - Снежный покров - Высота снежного покрова, см. При наведении курсора мыши на число - состояние снежного покрова и степень покрытия местности в баллах.